Theta_e
291 290 286 289 290 291 291 291 291 290 292 292 289 290 293 292 288 286 293 293 291 293 296 289 290 290 290 291 291 291 291 289 289 290 290 291 291 291 290 290 290 290 291 293 292 291 291 287 288 288 288 288 287 288 288 289 288 289 289 288 291 292 293 293 294 294 295 295 296 296 295 297 297 297 297 297 296 296 297 300 302 304 304 306 306 307 308
289 290 287 288 289 288 289 290 291 292 292 292 292 292 294 293 291 293 293 292 292 295 296 293 292 291 290 290 289 288 289 290 288 287 289 291 291 291 292 293 293 292 292 291 291 290 289 289 289 289 289 289 289 290 290 290 289 290 287 288 293 293 294 294 294 294 295 295 297 296 297 297 296 294 293 292 292 293 294 295 296 297 299 302 303 305 305
286 289 288 287 287 286 286 289 291 291 292 292 293 293 292 292 292 292 291 291 291 297 299 295 291 292 290 290 290 292 292 289 288 288 289 290 291 292 292 292 292 292 291 291 290 290 291 291 290 291 291 291 289 289 290 290 291 291 289 290 293 294 295 295 295 295 295 295 294 295 297 294 293 293 293 292 291 292 293 292 293 293 295 299 297 299 301
284 287 287 287 287 287 288 288 290 290 290 288 291 290 293 291 289 290 290 288 289 296 300 294 292 291 292 293 294 294 292 289 289 289 291 291 292 292 292 292 292 291 291 291 291 292 292 292 291 290 291 291 289 291 291 291 291 291 290 292 294 295 295 295 295 295 295 294 293 293 292 293 292 292 291 292 293 292 291 292 291 291 293 296 295 294 297
283 288 287 286 286 285 283 285 288 291 292 292 293 294 294 293 293 289 287 288 295 298 299 297 299 299 296 294 296 295 294 294 293 293 294 293 292 292 292 293 292 292 292 292 292 293 292 293 292 292 292 291 291 293 292 292 290 292 291 293 295 295 295 295 294 294 293 293 293 291 291 291 290 290 290 291 291 291 292 291 289 292 294 293 293 291 293
284 287 285 285 283 277 279 292 295 293 291 291 289 290 292 294 295 292 295 295 297 299 298 298 298 299 300 298 297 298 299 298 297 297 296 295 295 294 293 293 294 295 295 296 294 293 294 294 294 294 290 292 294 292 290 288 291 292 293 294 295 295 294 294 294 293 293 293 292 291 289 288 288 289 290 292 291 290 290 288 291 291 289 290 290 290 291
283 283 284 282 277 279 294 296 296 296 295 294 292 293 294 295 296 296 295 296 297 298 300 300 301 302 303 299 295 295 296 298 300 300 300 299 297 298 297 295 294 296 299 300 299 292 291 293 293 292 290 291 291 289 289 290 291 292 293 295 295 295 293 293 293 292 292 292 292 291 290 289 289 289 290 289 289 289 290 290 291 291 291 290 290 289 289
285 282 282 277 278 288 292 294 295 297 297 295 293 291 294 295 296 297 295 297 298 299 300 301 301 302 297 293 294 297 299 298 299 299 299 298 297 298 301 301 301 299 298 299 300 298 297 293 293 292 294 292 290 291 289 291 290 291 294 295 295 294 293 293 292 292 291 291 290 290 290 290 289 289 288 289 289 287 288 288 288 288 288 288 289 289 288
278 281 282 281 287 285 287 288 289 293 290 291 290 286 290 295 297 297 297 297 299 299 300 301 300 290 290 293 300 299 297 296 294 296 297 299 300 301 301 301 300 301 300 300 300 298 296 294 293 293 293 292 291 290 288 289 289 291 292 293 293 293 293 293 292 291 291 290 290 289 289 289 289 289 288 287 287 287 288 288 288 288 288 287 288 288 288
283 278 275 278 280 276 282 287 287 293 295 296 296 292 289 296 298 299 298 298 299 299 300 300 291 294 294 295 298 300 296 296 297 296 299 301 302 303 303 301 299 299 299 298 297 295 294 293 293 294 292 292 291 290 290 289 289 290 291 292 293 293 293 292 291 291 290 290 289 289 288 289 289 289 288 288 288 288 289 288 288 288 287 287 287 287 288
281 279 276 276 276 279 287 286 289 291 292 294 293 289 286 295 297 299 299 298 299 299 299 292 293 294 291 294 298 293 296 295 298 299 299 300 301 302 302 301 300 298 297 297 296 292 290 291 291 291 291 291 291 291 290 289 289 290 291 292 292 292 292 291 291 290 290 290 289 289 288 288 288 288 287 288 287 287 288 288 287 287 287 287 286 286 287
277 277 276 274 279 280 286 287 287 290 293 296 291 281 282 295 298 298 299 299 299 300 292 292 294 294 292 294 295 294 293 296 297 299 300 299 299 299 300 300 299 298 295 293 293 293 292 292 293 291 291 291 290 292 291 290 289 290 291 292 293 291 290 290 290 290 290 289 289 289 288 288 287 288 287 287 287 287 287 288 287 287 287 287 287 286 286
277 278 273 277 278 283 287 289 290 289 293 294 284 279 289 292 296 299 299 299 300 299 293 295 296 298 300 302 300 293 291 292 293 295 296 298 299 299 299 299 296 297 296 295 296 296 297 296 294 291 290 291 291 291 291 290 289 291 292 292 289 289 290 290 290 290 290 289 289 288 289 288 288 287 287 287 287 287 287 287 287 287 287 286 286 286 285
276 276 275 275 279 283 286 285 287 289 291 284 281 293 293 292 291 292 294 296 298 296 297 298 299 300 302 301 301 299 298 296 296 296 293 294 295 295 292 292 292 295 296 294 293 293 293 294 293 291 290 290 291 292 291 290 291 292 292 289 288 289 289 290 290 289 289 289 289 289 288 288 287 287 287 287 287 287 287 287 287 286 286 286 286 285 285
280 277 275 275 272 281 287 287 286 290 284 286 293 292 293 296 295 293 291 294 296 296 296 298 299 299 299 299 300 299 298 297 295 295 296 296 297 298 298 296 294 293 295 295 294 294 295 293 293 290 290 290 291 291 291 292 293 291 288 288 288 289 289 289 289 288 288 288 288 289 288 287 287 287 287 287 287 287 287 287 286 286 286 286 285 285 284
276 277 274 276 282 283 288 289 282 288 291 293 293 294 293 294 292 291 292 291 293 293 294 295 296 296 296 296 297 296 297 297 296 296 296 296 297 297 297 295 295 293 294 295 296 295 294 293 291 289 290 290 290 290 292 293 289 287 287 288 288 288 288 288 288 288 288 288 288 288 287 287 287 287 286 286 286 287 287 287 287 286 286 286 286 285 284
280 277 280 284 285 285 287 288 288 292 295 294 290 290 293 293 292 289 292 293 294 293 293 293 292 292 292 294 295 294 296 296 295 295 296 296 296 296 296 296 295 291 293 294 295 295 295 293 291 289 289 290 290 290 292 289 288 287 288 288 288 288 288 288 288 288 288 288 288 287 287 287 287 287 286 286 286 286 286 287 287 287 286 286 286 286 285
279 280 282 283 284 285 285 285 286 287 289 290 290 290 291 292 293 292 291 291 292 293 291 290 289 289 291 291 292 292 293 293 294 293 293 293 294 293 293 293 292 292 293 292 292 293 294 292 290 289 289 290 290 292 290 289 288 287 287 287 287 287 287 287 288 287 287 287 287 287 287 288 288 288 287 286 287 286 287 287 287 287 286 286 286 286 285
278 275 283 285 285 286 287 288 286 286 288 290 291 291 291 293 294 293 290 290 289 290 290 289 289 290 289 290 291 292 292 292 293 293 293 294 293 293 293 294 292 292 290 291 291 291 292 293 290 289 288 289 291 292 288 287 287 287 287 287 287 287 287 287 288 287 288 288 287 287 287 287 288 287 287 287 287 286 287 287 287 287 286 286 286 286 285
280 280 282 282 285 287 288 288 287 286 287 288 289 290 291 292 291 288 288 287 286 286 290 291 292 293 294 293 293 294 294 294 294 294 295 294 294 293 292 292 291 291 291 291 291 291 292 293 291 289 288 288 289 289 287 287 287 287 287 287 287 287 287 288 288 288 288 287 287 287 287 287 287 287 287 287 287 287 287 287 287 287 286 286 286 286 286
281 282 284 285 284 284 285 286 285 286 288 289 289 288 288 289 289 289 288 287 288 288 292 293 292 292 293 294 294 294 294 294 294 294 295 295 294 293 292 291 290 291 291 291 291 290 292 293 291 289 288 288 288 287 287 287 287 287 287 287 287 287 287 288 288 288 288 288 288 288 287 287 288 288 287 287 288 288 287 288 289 288 287 287 287 287 287
276 278 282 283 278 280 284 286 288 287 286 286 287 288 288 287 288 288 288 289 287 288 289 290 291 291 292 293 294 293 294 294 294 294 295 295 295 293 291 290 289 289 289 290 290 290 291 292 290 288 287 287 286 286 286 286 287 287 287 287 287 287 287 288 288 288 288 288 288 288 287 287 286 286 285 287 287 288 287 286 287 288 288 288 287 287 287
278 283 285 283 284 285 286 287 287 285 284 284 285 286 287 288 288 288 287 287 288 288 289 290 289 290 291 292 293 292 293 294 294 295 294 294 294 293 291 289 289 289 289 289 289 289 290 290 289 287 287 286 285 285 286 286 287 287 287 287 287 287 287 288 288 288 288 288 288 288 287 287 286 285 285 285 286 286 287 286 286 286 286 287 287 287 287
285 286 287 285 282 283 287 288 288 287 285 285 285 286 288 288 288 287 286 287 288 289 289 290 290 290 291 292 292 292 293 293 293 293 294 294 292 290 289 289 289 289 289 288 288 289 290 289 288 286 286 284 284 284 286 286 287 287 287 288 287 288 288 288 287 287 288 288 287 287 287 286 286 285 285 283 282 283 284 285 285 285 286 285 286 287 287
284 287 286 285 284 285 287 288 288 289 289 287 287 288 288 288 288 288 287 288 288 288 289 291 292 292 292 292 292 292 292 294 294 293 292 291 290 289 289 288 288 288 289 290 289 288 288 287 286 286 286 284 283 284 286 286 287 287 287 287 288 288 288 288 287 287 287 287 287 287 286 286 285 285 285 284 282 280 280 284 284 285 285 285 286 286 286
285 286 286 286 284 284 285 285 286 287 288 288 284 286 287 288 288 288 289 289 289 289 288 289 290 291 292 292 293 293 293 293 293 292 291 291 291 289 288 289 290 290 289 288 287 287 287 286 286 285 285 284 283 285 286 287 287 287 287 287 288 288 288 288 287 287 287 287 287 287 287 286 286 285 286 286 285 282 280 279 280 281 284 285 285 285 285
283 284 283 282 282 283 285 284 284 287 287 287 286 286 287 288 288 288 288 288 288 288 289 290 291 292 292 292 292 292 292 292 291 291 291 290 290 291 291 291 289 288 287 287 286 285 285 284 283 283 284 283 282 284 286 286 287 287 287 287 287 284 283 285 288 287 287 287 287 287 287 286 285 285 285 285 284 282 281 281 281 280 279 280 283 284 283
284 284 284 281 281 282 284 285 285 286 287 287 287 287 287 288 288 288 288 288 288 289 289 289 289 289 290 291 291 291 292 291 291 291 292 292 292 292 290 288 287 285 285 285 285 283 282 282 282 282 283 281 281 283 285 286 287 287 287 287 287 287 286 285 287 287 287 287 287 287 286 286 286 285 284 282 282 281 281 280 280 278 276 277 275 278 283
282 283 284 285 285 286 287 287 286 286 286 288 288 287 286 286 287 287 288 288 289 289 289 289 290 290 290 291 291 291 291 291 291 291 292 293 292 289 287 286 284 282 282 283 282 281 281 281 282 282 282 280 280 282 285 286 286 287 287 287 287 286 286 286 287 287 286 286 286 286 285 284 283 282 281 281 280 280 279 279 278 277 277 273 274 275 276
281 282 283 283 284 285 284 284 285 286 286 287 287 287 287 286 287 288 289 289 290 289 290 290 290 290 290 290 290 290 290 291 292 292 292 292 290 287 284 281 279 278 278 279 282 282 281 282 282 282 282 280 281 282 284 285 286 286 286 286 286 286 285 286 286 286 285 285 284 282 281 281 281 280 279 279 278 278 277 277 276 275 274 273 275 274 275
281 282 282 282 283 283 283 283 284 285 286 286 286 286 286 286 286 287 288 288 289 289 289 290 290 290 290 290 291 291 291 291 290 290 290 289 287 284 281 280 284 286 287 286 285 281 281 281 281 282 280 279 280 281 283 285 285 285 285 284 284 282 282 282 283 284 284 282 280 281 279 279 279 278 278 277 276 276 276 275 274 273 273 272 272 272 272
281 281 281 282 282 282 283 284 284 284 285 286 285 285 286 285 285 286 287 287 288 288 288 289 288 289 290 290 290 290 290 289 289 287 287 286 285 283 281 281 283 282 286 283 281 281 280 280 280 279 276 278 279 281 283 284 283 283 283 279 282 281 280 280 281 281 280 279 279 279 278 278 278 278 276 276 276 276 275 274 273 272 271 271 271 271 269
278 278 278 280 281 281 282 283 284 284 284 285 286 287 287 286 286 287 287 288 288 288 288 288 289 289 289 289 289 289 289 289 287 285 283 283 283 282 280 280 280 280 279 277 277 279 280 280 280 275 276 277 278 280 281 282 282 282 281 281 280 279 276 279 279 279 277 277 278 278 278 278 277 277 277 276 275 274 273 272 271 271 271 271 270 268 269
277 280 281 279 278 280 282 283 284 283 282 281 278 277 277 278 279 280 281 282 282 283 285 286 287 288 288 288 288 288 288 286 285 285 284 283 282 281 280 278 276 273 271 269 273 274 276 277 274 274 276 276 277 279 280 280 281 281 280 279 279 278 278 277 277 277 277 276 277 275 276 275 276 276 275 274 274 273 272 271 271 271 270 269 267 266 271
266 266 267 268 270 271 271 270 270 271 272 273 274 274 274 274 275 275 277 277 278 279 281 282 282 283 284 284 285 285 285 285 287 287 287 285 283 280 276 275 274 273 272 270 269 270 270 271 273 274 274 275 276 277 278 279 280 279 278 278 277 277 277 276 276 276 276 276 275 275 275 275 274 272 272 273 272 272 271 271 271 270 270 269 267 267 272
265 265 266 266 267 268 268 268 268 268 269 269 270 271 271 272 273 273 274 275 277 277 277 277 278 280 281 282 283 283 283 283 284 285 285 284 279 274 273 274 275 275 274 273 268 267 269 270 270 271 274 274 275 275 277 278 278 278 277 277 276 275 275 275 275 275 274 274 274 274 274 272 271 271 271 271 271 271 271 270 270 270 270 269 269 270 270
265 264 265 265 266 266 266 266 267 267 267 268 269 269 270 270 271 271 272 273 273 274 275 276 276 277 279 281 283 283 283 283 283 283 280 275 273 273 273 274 273 275 274 275 272 268 268 269 268 269 272 273 274 274 274 271 276 276 276 276 275 275 274 274 273 273 272 272 272 272 270 270 271 270 270 271 270 270 270 270 269 269 268 268 267 268 268
263 264 265 266 266 265 265 265 266 266 267 267 268 269 269 269 270 270 271 271 271 272 274 275 275 277 278 279 279 280 281 280 278 277 273 272 273 273 273 273 273 273 274 274 268 266 268 268 267 270 272 273 273 273 271 270 271 275 275 275 274 273 273 273 272 271 271 271 270 271 271 271 270 270 269 270 269 269 269 268 268 268 267 267 266 266 265
262 264 265 266 266 266 266 266 267 266 266 266 267 267 268 268 269 269 268 269 271 273 273 274 275 275 276 277 278 279 278 276 274 274 273 272 272 274 273 268 266 266 267 266 266 267 267 268 269 271 271 271 272 272 269 268 270 275 274 274 273 273 272 271 271 270 269 269 270 270 271 270 270 269 269 268 268 268 267 267 267 266 266 266 266 265 265
261 262 263 264 264 265 265 265 265 266 267 267 265 264 265 266 266 267 268 268 271 273 272 273 273 275 276 277 277 277 274 271 272 272 272 272 271 268 265 264 264 264 266 265 266 266 266 266 268 269 269 269 271 271 270 269 270 272 273 273 272 271 271 270 270 269 269 269 269 267 269 268 268 268 267 267 267 266 266 266 266 266 265 265 265 265 265
260 262 263 263 263 264 264 264 264 264 265 265 264 263 263 263 264 265 266 268 270 271 271 271 272 274 275 276 274 271 268 268 269 269 270 269 269 269 270 267 263 264 264 265 265 265 266 267 269 269 269 270 270 269 270 268 271 272 272 272 271 271 270 270 270 269 269 269 268 268 268 267 267 266 266 267 266 266 266 266 266 266 266 265 265 265 265
260 261 262 262 263 263 263 263 263 262 263 263 262 262 262 263 263 264 266 268 269 269 269 269 268 268 269 269 268 268 267 266 265 264 263 264 265 268 268 264 262 263 263 264 264 265 266 266 267 267 269 269 269 267 267 270 271 271 271 270 270 269 269 269 269 269 269 269 269 268 267 267 267 266 266 266 266 266 266 266 266 265 265 265 265 265 265
259 259 261 261 262 262 262 261 261 261 260 261 261 261 261 262 262 263 265 266 266 266 267 267 267 267 267 267 266 264 263 263 263 263 262 261 261 261 262 261 261 262 263 263 264 264 265 265 266 266 266 267 267 266 267 270 270 270 269 269 268 268 268 268 268 268 268 267 267 267 267 267 267 267 266 266 266 266 265 265 265 264 265 265 264 264 264
258 259 260 261 261 262 262 261 260 260 259 260 260 261 260 260 261 261 262 262 262 263 263 263 263 264 265 265 264 263 263 263 263 263 262 262 261 261 261 261 262 262 262 263 263 263 264 264 265 264 264 265 265 266 268 268 268 268 268 268 268 267 267 267 267 267 267 267 267 267 267 267 267 266 266 265 265 265 265 264 264 264 263 263 263 263 262
257 258 258 260 261 260 260 260 260 259 260 260 260 260 260 260 260 260 260 260 260 260 260 261 261 261 261 261 260 259 259 259 259 262 263 262 260 259 261 261 262 262 262 262 263 263 263 264 264 264 264 265 265 266 267 267 267 267 267 267 268 267 267 267 267 267 267 267 267 267 267 266 266 266 266 265 265 264 264 263 263 263 262 262 262 262 261
257 258 258 259 259 260 260 260 260 260 260 260 260 260 260 259 259 259 259 259 259 259 259 259 260 260 261 262 261 260 260 260 260 260 259 260 259 259 261 261 261 262 262 262 262 262 263 263 263 264 264 265 265 266 266 266 267 267 267 267 266 266 266 265 265 265 265 265 265 265 265 265 265 265 265 264 264 263 263 262 262 262 262 261 261 261 261
256 257 257 257 258 259 259 260 260 260 260 259 258 258 259 259 259 258 258 258 258 258 258 258 258 259 259 260 261 261 260 259 259 259 260 260 260 260 260 261 261 261 261 261 261 261 262 262 263 263 263 264 264 265 265 265 265 265 265 265 265 264 264 264 264 264 264 264 263 264 263 263 263 263 262 262 262 262 261 261 261 261 260 260 260 260 260
256 255 256 256 256 257 258 258 258 258 258 258 258 259 259 259 258 258 258 258 258 258 257 257 258 258 258 259 259 260 260 260 257 257 259 259 260 260 260 260 261 261 261 260 260 261 261 262 262 262 262 263 263 264 264 264 264 263 263 263 263 263 263 262 262 262 262 262 262 262 262 262 262 262 261 261 261 261 261 260 260 260 260 260 260 259 259
257 256 256 256 255 255 255 256 256 256 256 257 258 258 258 258 257 257 257 257 257 256 256 256 256 257 258 258 258 258 259 259 259 258 259 259 259 259 259 259 259 260 259 259 259 259 260 260 261 261 261 261 261 262 261 261 261 261 261 261 261 261 262 262 262 262 261 261 261 261 261 260 260 260 260 260 260 260 260 260 260 259 259 259 259 259 259
257 257 256 255 254 253 253 254 254 254 254 255 256 258 258 257 256 255 257 258 257 257 256 255 256 256 257 257 258 258 258 258 258 258 258 258 258 258 258 258 258 258 258 258 258 258 259 259 259 259 259 260 260 260 260 260 260 260 260 260 260 260 260 260 260 260 260 260 260 260 260 260 260 259 259 259 259 259 259 259 259 259 258 258 258 258 258
256 256 256 256 255 254 254 254 253 254 253 254 255 257 258 256 255 256 256 256 257 257 256 255 255 255 256 256 256 257 258 258 258 258 258 257 258 258 258 258 257 257 257 257 257 257 257 257 258 258 258 259 259 258 259 259 259 259 259 259 259 259 259 259 259 259 259 259 259 259 259 259 259 259 259 259 259 258 258 258 258 258 258 258 258 258 258
256 255 255 256 256 256 255 254 254 254 254 254 254 254 255 256 256 255 255 255 255 255 255 254 254 254 255 255 256 256 257 257 257 257 257 257 257 256 257 257 257 257 256 256 256 256 256 257 257 257 257 257 257 257 257 258 257 257 258 258 258 258 258 258 258 258 258 258 259 258 258 258 258 258 258 258 258 258 258 258 257 257 257 257 257 257 257
Wind_Speed
18 12 4 7 6 11 14 19 18 18 18 17 19 19 18 9 13 16 15 12 16 24 23 4 8 7 8 9 9 8 6 4 3 2 5 6 7 6 6 8 8 8 10 11 10 7 7 5 6 7 6 7 6 6 6 5 4 6 5 5 6 6 6 8 8 6 5 5 4 5 5 5 5 5 5 5 5 5 5 5 6 6 6 7 7 7 6
16 16 6 5 7 4 7 12 15 14 15 17 19 18 18 18 13 9 13 12 17 20 21 5 7 6 6 7 4 4 5 5 4 4 6 8 8 7 9 11 10 10 11 9 8 6 6 7 7 7 7 8 8 8 8 6 6 6 5 6 7 7 8 9 7 6 6 5 6 5 5 5 4 4 4 4 4 4 4 4 5 5 5 5 6 6 6
15 14 7 5 5 4 6 6 10 12 12 11 12 11 11 9 13 13 17 19 21 23 16 1 4 5 5 4 5 9 8 3 5 6 7 8 10 11 10 9 8 8 8 8 7 7 9 9 10 9 9 7 6 7 8 7 8 6 7 7 7 8 10 7 6 5 6 6 5 6 5 4 4 4 4 3 3 3 3 3 3 4 4 5 5 5 5
11 9 10 11 9 9 12 11 11 9 10 10 10 12 13 14 13 13 12 14 17 25 15 5 8 4 6 10 11 9 6 6 7 8 11 11 11 9 8 9 9 9 10 10 10 11 11 11 9 8 8 8 5 10 9 9 7 6 7 8 9 8 7 5 6 7 6 6 6 5 5 5 5 4 4 3 3 4 3 3 4 3 4 5 5 4 5
11 11 11 13 11 9 14 16 12 13 15 17 17 17 15 15 15 13 13 17 20 20 11 10 20 20 14 12 11 9 10 10 11 14 14 11 7 8 10 10 11 10 11 12 13 12 9 10 10 11 10 6 9 12 11 9 6 7 9 9 8 8 7 7 7 7 6 6 6 5 5 4 4 4 4 5 5 4 5 4 4 5 5 4 5 4 4
8 11 7 4 6 17 15 7 17 20 20 20 21 18 19 19 16 14 15 19 19 17 19 20 25 26 23 17 14 10 12 14 14 14 12 11 12 10 8 9 11 12 11 10 10 11 10 10 11 10 6 10 12 8 5 5 8 8 9 9 9 9 7 8 7 6 6 6 6 5 4 4 4 5 5 6 5 5 4 4 5 4 4 4 3 3 4
11 4 6 7 19 12 6 11 15 20 23 21 20 18 18 16 15 15 16 18 23 26 23 18 21 21 19 10 9 11 13 13 14 17 16 13 9 10 10 11 13 14 15 14 14 8 8 12 11 9 7 9 8 5 7 8 8 8 9 9 8 8 8 7 6 7 7 7 6 6 5 5 5 5 5 4 5 5 5 5 5 5 5 4 4 3 3
0 5 8 13 6 3 5 7 7 13 17 17 14 19 21 20 20 22 25 28 28 26 23 21 18 19 7 5 10 16 17 16 15 12 10 7 7 12 17 19 17 14 14 17 18 16 13 9 9 8 11 8 7 10 5 7 7 7 8 9 9 7 8 9 9 8 8 7 6 6 7 7 7 6 5 5 6 4 3 3 2 3 2 3 4 4 4
5 3 5 8 6 6 6 3 1 8 10 12 18 17 21 23 22 21 22 23 23 22 21 23 13 3 4 7 15 14 15 7 4 6 8 10 14 16 17 15 16 15 16 16 17 14 12 10 9 10 11 7 8 7 6 8 7 7 7 9 10 10 10 9 9 8 8 8 7 7 7 8 8 7 6 5 4 3 4 4 4 4 5 3 3 4 4
5 3 3 1 5 8 2 4 4 4 3 7 12 15 17 11 13 14 16 20 22 25 26 20 4 1 6 13 20 14 4 9 10 9 14 19 21 21 18 14 14 16 14 13 12 10 12 12 12 9 7 9 9 9 10 7 8 8 9 11 11 10 11 10 9 8 8 8 8 7 6 7 6 6 5 4 5 5 5 6 5 5 4 3 3 3 4
4 2 2 3 2 3 2 2 1 2 1 2 4 4 14 10 9 15 19 22 25 25 23 0 5 3 9 17 19 2 11 9 13 17 19 20 19 17 17 18 18 15 14 15 15 9 7 10 10 8 9 10 10 11 11 10 10 10 12 12 11 13 13 10 9 9 8 8 8 7 7 6 5 6 6 6 4 4 4 4 4 4 4 4 3 3 3
4 3 4 6 2 4 6 6 2 2 3 6 7 10 8 14 9 9 14 20 22 24 2 5 6 8 12 21 4 7 8 14 13 15 14 13 14 15 17 15 13 12 9 7 9 10 11 15 13 10 10 10 12 13 13 11 11 13 14 15 15 9 6 9 9 9 9 9 9 9 9 7 6 6 5 5 5 6 4 4 5 4 5 4 5 3 3
6 6 2 3 5 5 6 9 8 1 1 6 7 10 0 6 3 11 12 15 18 11 6 8 12 13 15 19 11 5 1 1 6 8 10 11 10 13 14 15 12 10 11 10 14 16 15 15 11 8 8 10 13 14 13 12 16 16 16 12 7 9 8 9 10 10 9 10 10 9 8 8 7 6 6 6 6 6 6 5 5 5 5 5 4 4 2
6 5 6 6 5 6 5 6 7 4 3 4 6 7 1 4 4 3 1 6 11 6 10 11 12 14 14 15 12 10 11 10 10 10 7 9 11 11 7 8 7 9 11 11 13 13 12 13 11 8 9 12 14 13 12 16 19 14 11 8 8 9 10 11 10 10 10 9 9 8 7 7 8 7 6 6 7 7 6 6 7 7 5 5 5 4 3
3 2 2 3 6 7 7 4 3 0 4 5 7 2 6 11 11 5 3 5 8 6 10 12 13 13 11 12 13 11 13 10 10 12 13 13 16 16 14 11 11 10 10 12 14 16 15 12 11 8 10 13 14 13 15 20 15 10 7 8 9 9 9 10 10 11 10 11 10 8 8 8 8 8 7 7 7 7 8 7 7 8 7 6 6 5 4
6 9 9 8 10 1 4 8 5 5 9 6 4 4 8 9 4 5 6 6 7 5 7 9 11 10 8 10 10 10 12 12 11 11 14 15 14 14 14 12 11 7 11 13 14 14 14 12 9 9 12 14 14 14 20 15 6 6 7 8 9 10 10 10 10 10 10 10 9 8 9 8 8 8 9 8 7 7 7 7 7 7 6 6 6 6 6
5 5 6 7 7 6 7 5 7 6 10 9 5 5 7 9 9 4 5 7 9 9 9 8 8 8 7 9 10 9 13 12 11 12 13 12 13 13 14 16 12 7 12 16 16 16 14 12 10 10 11 14 16 17 17 6 10 10 10 10 11 11 11 11 11 9 9 9 9 9 9 9 9 9 9 9 8 7 8 7 7 8 7 7 7 7 6
3 5 5 4 6 9 8 6 6 5 4 6 6 7 10 10 11 7 7 6 7 9 5 4 6 6 7 9 10 10 11 10 12 11 11 13 13 10 10 13 12 11 12 12 13 16 17 13 11 10 12 13 17 20 9 10 10 10 11 12 12 12 10 10 10 10 11 9 9 9 9 8 8 7 9 9 8 8 7 7 7 7 7 7 6 6 6
3 7 7 13 14 11 11 11 7 8 9 10 8 9 10 13 11 8 5 5 5 6 7 6 9 11 9 10 13 12 11 12 13 14 14 14 15 13 13 15 10 10 10 12 15 16 18 16 11 11 13 13 17 12 8 8 9 10 11 12 11 10 11 10 10 10 12 10 9 9 10 8 7 7 8 8 8 8 8 8 8 7 7 8 7 7 7
7 12 11 9 12 15 15 12 9 9 11 13 12 11 9 10 8 3 3 3 4 5 9 11 12 14 13 13 15 14 12 14 14 14 15 16 16 14 11 12 10 10 12 13 15 16 18 19 12 12 12 14 13 9 8 9 10 11 11 12 13 12 12 11 10 11 11 12 12 10 10 10 10 9 9 9 10 11 12 11 11 9 8 8 8 8 7
8 9 14 15 9 10 15 14 8 8 8 8 11 9 9 11 12 12 6 6 6 5 11 14 13 14 16 15 16 15 14 15 15 15 16 17 15 14 12 10 8 13 13 14 16 16 19 17 12 11 13 12 10 11 10 11 12 13 12 11 9 10 10 9 9 9 9 10 10 10 10 9 8 8 9 10 9 7 4 5 7 9 7 5 4 4 6
7 12 18 8 4 10 15 16 19 13 9 7 10 12 11 10 13 13 14 12 6 8 9 11 12 14 16 17 16 17 16 16 17 17 18 18 17 14 11 9 9 11 13 15 16 16 17 15 11 11 11 11 10 10 10 11 12 13 12 11 10 10 10 10 9 10 9 9 9 9 9 9 8 6 4 6 5 6 6 5 5 4 7 7 7 7 6
13 16 16 5 8 12 17 17 11 1 2 4 7 11 13 14 12 10 9 11 12 8 9 10 11 12 15 19 17 17 17 17 17 17 17 19 18 16 11 9 12 11 14 13 13 15 16 11 10 10 9 8 8 9 10 11 13 13 12 11 10 9 10 10 12 12 10 10 10 9 9 9 8 8 6 4 2 2 4 7 8 7 6 5 7 7 7
17 21 17 5 2 7 14 14 12 9 4 5 9 12 13 14 13 9 7 8 10 11 10 10 9 11 14 17 17 18 20 20 17 18 18 17 14 13 10 9 12 14 14 13 14 17 13 9 10 9 9 8 9 9 10 11 11 12 13 13 12 12 12 10 11 11 10 10 9 10 9 9 9 9 8 8 4 4 4 6 6 7 8 7 9 9 7
18 19 10 5 5 9 13 17 18 18 15 9 12 15 15 14 15 11 10 10 8 10 12 14 15 13 15 17 16 16 18 21 19 17 17 16 15 12 12 10 12 14 16 14 11 10 9 9 9 9 10 10 9 10 11 12 13 13 13 12 12 11 10 10 11 12 11 11 11 11 12 12 11 10 10 10 11 8 4 5 7 7 7 8 10 10 10
19 21 18 11 6 8 10 13 20 23 23 12 5 7 13 14 16 16 15 13 12 9 9 11 13 13 12 16 19 19 20 22 21 18 13 16 16 12 12 15 17 13 12 11 10 10 9 10 10 9 11 10 10 11 12 12 13 14 14 13 12 12 12 13 13 12 12 11 12 11 11 11 11 11 11 10 10 9 9 7 5 4 3 7 10 11 10
15 17 17 16 17 20 21 20 22 25 22 17 12 14 17 17 16 12 11 11 11 9 10 12 16 19 19 18 20 21 19 21 19 16 14 16 17 18 16 13 12 12 10 10 10 10 10 8 8 10 11 8 8 9 10 11 12 12 12 11 10 11 15 14 12 12 11 10 11 10 10 11 11 11 11 9 9 11 11 11 11 10 8 5 6 8 7
12 14 13 17 20 20 19 16 14 19 22 22 21 19 18 17 16 16 18 19 18 16 15 14 15 16 17 17 17 20 19 17 19 18 18 19 18 16 12 12 12 10 9 10 11 8 7 8 9 10 11 7 9 9 10 11 12 12 12 11 10 10 11 14 11 10 11 11 10 10 11 10 9 9 8 9 10 9 8 7 7 7 6 5 3 1 7
17 17 14 14 16 18 18 17 15 17 21 22 18 12 10 13 16 16 18 19 19 18 16 12 11 13 15 16 15 17 18 18 18 19 19 20 19 12 10 10 9 7 8 10 9 8 8 9 11 11 12 8 10 11 11 11 11 11 11 11 10 9 10 10 10 9 9 9 9 10 9 8 8 8 8 8 6 8 7 8 8 7 7 5 5 4 4
18 16 14 14 16 18 19 19 20 21 21 21 20 16 12 10 14 17 17 17 15 16 15 13 12 12 12 14 14 14 17 19 19 18 18 18 16 11 8 7 4 5 5 8 13 12 11 11 11 13 9 7 10 11 12 12 11 10 10 9 9 9 9 10 9 9 9 9 9 9 7 7 7 7 8 8 8 8 8 8 9 9 8 7 6 7 8
13 12 13 14 17 17 19 22 22 23 24 23 24 21 17 13 16 18 21 21 19 19 18 19 17 17 17 18 17 16 15 15 16 16 17 16 14 10 7 6 7 12 14 13 9 5 8 10 9 11 5 8 9 11 12 12 11 10 9 8 7 8 9 11 9 8 8 8 8 9 8 8 8 8 8 8 8 8 8 8 8 7 7 7 7 7 7
15 13 14 15 15 17 18 18 19 22 23 23 22 22 20 17 18 20 21 20 20 19 19 20 20 20 20 19 18 18 16 16 17 16 14 13 13 11 8 9 12 14 12 7 5 6 7 7 11 6 5 8 8 9 10 11 10 11 11 10 9 8 9 12 7 7 5 6 7 7 7 9 9 8 8 8 9 9 8 9 9 8 8 8 8 7 6
13 16 16 16 15 14 15 17 18 20 20 21 21 20 16 11 10 13 16 17 17 16 15 16 17 17 16 16 15 16 16 16 15 12 11 12 13 12 9 9 9 8 7 6 4 5 7 10 8 3 6 8 9 9 9 9 10 10 9 9 8 8 9 10 9 8 7 7 7 8 7 7 7 7 8 7 7 7 7 7 7 7 7 7 7 6 6
15 19 18 10 4 12 16 18 15 13 12 10 9 9 9 7 6 8 12 13 14 16 17 15 15 14 13 14 15 16 15 13 12 14 15 15 13 11 9 8 6 5 4 2 2 3 5 5 2 3 4 7 8 9 9 8 8 8 9 10 9 9 10 9 10 9 9 8 7 7 8 6 8 8 7 7 8 8 8 8 7 7 7 6 6 6 7
7 9 8 7 5 6 6 9 11 10 10 14 14 11 9 9 8 10 12 13 15 16 13 12 13 13 13 13 13 14 13 15 16 17 15 10 10 10 7 5 3 2 4 2 2 2 3 1 1 3 3 4 7 8 8 9 8 7 9 10 10 9 9 9 10 10 10 9 9 9 9 9 8 7 7 8 8 8 8 7 8 8 8 8 6 6 7
7 8 7 6 6 6 8 9 9 9 10 12 14 13 12 11 10 12 14 15 13 11 12 12 12 12 13 13 12 12 12 12 13 13 12 10 6 4 5 6 7 7 7 7 1 0 2 1 1 4 4 4 4 5 7 8 7 8 9 10 9 8 7 8 7 8 7 9 9 9 9 9 9 8 8 8 8 8 8 9 8 8 8 8 8 7 7
6 8 8 7 7 6 8 9 7 8 10 11 12 12 13 11 11 13 12 13 13 12 12 11 11 12 13 12 11 12 11 12 11 10 8 3 2 3 4 5 5 8 6 9 4 5 2 2 2 6 4 4 4 4 5 9 7 7 8 9 9 9 10 9 9 9 8 8 8 9 9 9 9 8 8 9 9 8 9 9 8 8 8 8 7 8 7
10 9 10 9 8 7 9 8 7 8 10 13 13 12 11 12 11 11 12 12 12 11 10 10 11 11 11 10 10 11 11 9 9 8 4 4 4 5 4 5 7 5 8 8 4 5 3 4 5 5 3 4 4 3 3 6 7 7 7 9 10 9 9 9 9 8 8 8 7 9 10 10 10 9 8 8 8 9 8 8 9 9 9 8 7 7 7
10 8 8 8 8 9 10 9 8 8 8 11 11 10 10 10 12 11 12 12 11 10 10 11 10 10 11 9 10 10 9 6 5 5 4 4 3 5 6 1 2 3 4 3 4 3 3 4 3 4 4 4 4 4 4 6 7 5 5 6 9 9 10 9 10 9 8 8 8 8 8 9 9 10 9 8 8 8 7 9 10 8 9 8 8 8 8
10 9 9 8 8 8 8 8 8 8 7 7 7 8 8 9 9 9 11 11 11 7 9 9 9 9 10 9 10 9 4 3 4 4 3 1 2 2 2 3 5 5 4 4 3 2 3 2 2 2 3 3 4 5 4 7 6 4 5 5 6 6 7 7 8 9 9 9 9 8 7 7 8 8 8 8 8 8 8 9 9 8 8 8 8 7 8
10 10 9 8 9 7 7 7 8 7 7 7 6 7 7 8 9 10 11 10 11 8 8 7 8 9 10 9 7 5 3 4 4 3 3 0 2 3 3 3 4 4 5 4 3 3 2 2 1 2 2 3 3 5 6 7 7 6 6 6 7 8 8 8 8 9 10 11 9 9 8 8 8 8 8 8 8 8 8 8 8 8 8 8 8 7 6
11 10 10 9 8 7 8 7 7 7 7 6 7 7 8 8 8 9 10 10 9 7 6 5 5 6 6 3 3 3 5 6 6 7 8 5 4 3 3 2 4 3 4 4 5 4 4 4 3 2 2 2 2 3 4 4 7 7 7 7 7 7 7 7 7 6 5 7 9 10 9 9 8 8 7 7 8 8 8 8 7 7 8 10 6 5 6
11 11 9 8 8 7 6 6 6 7 7 6 6 7 7 8 7 8 8 7 7 7 7 6 6 6 6 5 5 5 5 5 5 5 5 6 7 7 3 3 3 3 5 4 4 4 4 3 3 3 2 2 4 5 4 4 5 8 9 9 8 8 7 7 7 7 8 9 10 9 10 9 9 9 9 8 8 7 7 9 10 7 8 8 7 7 6
11 10 9 7 7 7 5 5 5 5 4 5 7 7 7 7 7 8 8 7 7 7 7 7 7 7 6 5 5 4 4 4 4 2 3 3 5 9 8 5 3 5 8 4 4 4 4 4 4 4 6 6 7 7 4 5 6 6 7 8 8 9 11 10 8 7 7 7 8 5 6 9 9 10 12 10 8 8 11 11 9 8 7 6 5 5 5
10 9 9 8 7 5 4 4 4 4 3 3 4 6 8 8 8 9 9 8 7 7 7 7 6 5 5 5 5 4 3 3 4 4 2 2 5 5 7 6 6 5 6 7 5 5 5 5 5 6 5 6 7 7 6 7 7 6 6 6 6 8 8 8 9 8 7 7 8 8 6 8 10 12 11 12 12 12 8 8 6 5 6 6 6 6 5
9 9 9 9 7 6 5 3 3 2 2 3 4 6 8 8 8 7 9 10 8 7 7 7 6 6 5 4 5 5 6 6 7 6 5 4 3 3 4 5 6 6 10 9 6 5 6 10 10 8 8 8 7 6 5 6 5 6 8 7 7 6 9 12 12 11 10 11 11 11 12 12 13 12 12 12 11 9 7 8 6 5 4 5 4 5 5
8 8 9 9 9 8 8 6 4 4 5 5 6 6 7 9 8 6 7 10 10 8 7 7 8 8 7 6 4 3 4 5 6 7 6 5 6 6 7 10 11 11 10 7 5 6 6 7 9 12 11 11 9 6 7 8 9 9 10 12 12 12 12 13 12 11 12 13 10 9 9 11 11 11 10 9 7 6 6 6 6 5 5 5 5 6 5
9 8 8 10 9 10 8 8 8 8 8 7 5 4 3 4 5 6 6 7 9 10 8 7 8 8 9 10 8 7 5 2 5 5 5 5 5 5 6 6 7 10 12 11 11 11 14 13 14 14 14 12 9 9 9 9 9 10 9 8 8 7 7 7 8 7 8 11 10 8 7 7 7 6 6 6 6 5 5 5 5 5 5 4 4 4 5
8 8 7 6 7 9 9 7 7 6 5 6 6 5 6 4 4 4 5 7 9 8 7 7 8 8 9 9 9 7 8 8 6 5 4 4 5 5 6 8 12 11 8 7 8 7 11 13 13 14 15 12 10 9 7 7 7 7 7 8 7 7 6 7 6 6 7 7 7 7 6 7 6 6 6 5 5 5 5 5 5 4 4 5 5 4 4
7 5 5 6 6 7 7 5 5 5 6 6 5 5 5 4 6 7 6 5 5 6 7 7 8 8 8 8 8 6 7 9 9 7 6 7 7 7 7 7 8 11 10 7 7 6 8 11 11 9 7 6 7 7 7 7 7 7 7 7 7 7 8 8 7 8 7 6 6 5 5 5 5 6 6 5 4 5 4 4 4 6 8 5 4 4 4
5 5 4 4 4 4 6 5 4 5 5 6 6 5 5 5 5 5 5 6 5 6 6 7 7 8 8 8 7 6 7 7 7 8 6 6 7 8 9 7 8 8 8 8 7 6 6 6 6 7 8 8 8 7 7 7 7 7 7 7 8 7 6 7 5 6 6 5 5 6 6 5 5 5 5 5 5 5 5 5 5 4 4 4 4 4 4
5 4 4 4 3 2 4 5 6 5 5 5 5 5 5 5 4 4 4 8 6 5 5 6 8 8 7 6 7 6 6 7 7 8 9 8 7 6 7 10 9 9 8 7 6 7 6 7 8 10 9 7 7 7 9 10 8 7 7 7 7 6 6 6 6 6 6 5 6 6 5 5 4 5 5 4 4 5 5 4 4 4 4 3 4 4 4
Wind_Direction
231 226 183 197 183 181 185 198 199 199 202 202 211 221 232 220 222 239 234 234 242 256 261 167 220 210 218 230 232 225 231 272 306 294 267 266 257 258 258 251 240 239 243 242 242 241 244 251 251 249 252 252 252 255 250 242 218 220 190 183 203 206 209 218 221 211 209 208 199 194 189 187 190 190 192 194 196 197 198 210 210 214 211 207 210 215 220
230 229 182 209 171 183 180 190 196 196 193 206 212 221 222 227 246 277 299 306 274 263 268 194 233 212 212 240 262 311 299 276 315 303 269 257 254 244 237 239 235 231 238 250 255 249 245 231 237 238 239 241 236 234 241 227 219 214 160 193 200 207 214 221 213 202 202 201 200 194 191 190 188 182 181 185 176 176 188 199 207 206 206 205 202 205 210
239 239 222 229 224 186 200 195 186 183 183 193 210 225 242 254 253 250 257 265 270 267 269 334 262 230 252 288 280 246 242 232 228 242 248 247 242 237 242 246 253 257 253 249 251 247 244 235 229 225 226 230 229 237 239 223 217 199 168 185 205 205 218 215 202 193 195 200 191 202 203 200 204 196 193 179 176 186 201 199 198 200 182 192 195 192 198
239 227 217 218 228 228 231 221 204 185 171 191 195 211 211 213 223 229 245 256 259 261 270 355 314 291 224 232 237 245 249 227 230 233 242 239 241 246 248 259 259 256 253 250 242 237 235 236 231 225 226 222 205 231 226 220 207 174 178 199 205 211 214 198 196 193 193 183 188 193 180 195 191 200 196 189 205 207 197 198 207 172 177 191 194 188 188
235 226 199 217 225 243 243 226 212 202 210 208 208 210 204 205 203 217 222 239 243 262 274 270 273 267 251 245 244 240 242 237 225 229 234 239 247 246 243 245 251 249 245 238 232 234 235 234 229 227 216 199 214 224 218 212 155 182 188 201 206 209 205 197 198 194 183 183 186 182 187 182 182 176 184 187 195 192 204 201 164 176 199 186 196 188 174
231 232 202 176 204 229 232 166 208 204 211 208 216 217 213 212 194 215 216 238 249 248 248 234 243 249 249 238 238 225 222 232 239 242 237 230 232 238 240 244 249 255 249 240 225 221 224 230 230 231 196 208 222 223 201 159 182 192 191 206 207 209 199 201 194 191 188 187 190 186 174 172 167 177 184 196 192 190 176 164 180 186 176 187 180 171 178
232 214 128 190 228 232 82 195 209 208 218 219 222 235 232 227 215 224 242 247 251 246 246 243 248 252 253 234 224 235 235 229 232 237 239 236 239 249 244 235 232 238 249 261 268 252 225 227 228 216 215 216 228 207 189 194 195 187 196 201 210 209 203 200 189 192 194 196 196 187 183 178 179 184 188 185 180 180 176 181 182 187 185 189 189 171 161
91 204 188 227 236 62 188 229 219 208 214 222 229 241 237 227 215 208 222 230 237 245 248 250 247 254 263 257 232 231 229 220 227 240 250 251 236 242 244 247 248 241 244 251 253 254 248 235 231 210 221 212 206 224 196 203 189 195 193 199 211 205 210 203 197 193 190 196 195 190 190 189 191 191 185 177 178 171 153 157 153 133 131 142 162 170 168
212 221 201 248 353 353 300 283 226 148 188 201 208 227 236 224 221 213 225 235 240 248 251 248 257 75 71 263 266 235 231 230 228 235 255 254 249 244 249 247 249 245 241 244 247 245 247 236 223 216 220 200 207 210 198 209 190 191 191 207 211 207 212 204 198 188 183 185 189 189 186 187 193 189 182 181 167 154 148 162 160 168 172 167 164 157 158
181 265 298 296 192 229 257 228 295 331 269 243 216 213 246 228 217 214 221 234 238 241 244 244 99 63 22 278 263 269 184 176 202 218 225 236 242 246 250 253 245 248 247 250 257 245 241 237 225 218 207 201 199 203 212 200 193 193 196 214 214 208 210 201 190 181 179 177 182 185 186 195 188 184 181 174 171 170 165 165 171 178 151 125 128 143 155
115 198 210 213 195 234 77 319 357 4 349 107 88 178 247 243 206 207 211 224 234 239 245 246 145 216 254 261 258 81 150 185 196 213 225 230 239 246 245 243 244 244 241 238 246 251 250 249 239 211 205 195 194 211 209 203 200 198 204 215 210 209 208 186 177 175 173 175 177 179 188 189 183 181 179 176 159 164 163 161 159 146 140 135 129 134 159
214 175 200 236 206 237 236 225 236 34 63 80 84 228 235 247 215 214 213 227 238 244 235 136 185 190 240 250 260 172 192 192 204 213 230 238 240 245 248 250 246 248 245 250 262 250 237 238 231 204 201 191 203 210 212 201 200 207 209 212 213 199 169 173 176 172 174 177 178 179 182 178 186 183 169 152 160 164 165 162 152 151 147 148 151 158 154
222 205 269 306 302 284 241 248 255 101 224 121 209 225 181 346 195 202 213 228 244 250 226 212 239 231 231 256 252 226 139 339 272 259 250 251 240 239 244 248 246 247 246 231 238 241 240 242 239 209 192 193 211 215 211 202 213 212 211 209 179 170 169 170 177 177 176 181 181 182 177 178 173 166 170 169 163 164 160 154 145 149 154 150 141 142 148
195 187 213 232 256 236 206 242 227 192 118 211 225 236 278 312 286 327 355 282 268 240 225 234 239 248 250 253 266 275 265 242 251 257 256 261 270 261 257 267 259 248 252 248 249 256 252 245 236 202 189 204 219 215 210 217 220 212 207 179 163 161 170 179 177 176 178 180 177 175 172 168 170 170 174 169 170 167 162 160 159 159 155 148 147 146 154
153 114 147 243 262 272 194 168 36 228 195 226 225 247 282 264 272 290 257 220 251 239 256 252 253 261 266 270 270 268 271 268 258 261 262 260 258 266 269 264 246 236 251 248 245 243 246 239 231 203 189 209 220 216 216 223 215 200 180 161 163 165 168 176 182 179 177 174 174 169 173 175 170 172 169 168 170 166 162 161 161 160 160 157 153 157 160
182 176 191 195 213 207 142 153 187 205 210 222 198 176 252 263 244 212 235 259 249 237 243 261 269 267 273 283 283 280 277 274 266 263 262 263 268 269 268 263 269 247 243 251 253 248 244 239 221 200 188 213 219 219 227 222 178 168 156 164 158 163 173 179 178 179 176 173 166 165 167 169 175 171 173 173 168 172 169 164 165 165 166 163 163 169 177
158 199 216 240 255 227 225 206 209 216 216 228 228 211 244 267 270 172 199 244 262 255 250 256 265 287 273 262 267 268 266 270 269 269 270 272 271 268 269 271 263 251 243 247 249 254 249 238 219 201 200 208 220 222 228 164 186 172 168 163 166 172 178 179 178 174 166 171 170 166 170 172 179 178 173 171 170 177 169 172 173 172 173 173 177 179 178
256 257 228 272 284 270 258 238 237 252 280 273 254 246 256 247 248 219 215 217 238 266 260 257 280 252 265 277 277 270 270 271 275 275 278 277 270 265 267 270 263 247 252 254 258 258 258 242 223 209 207 205 217 227 202 180 183 170 166 168 172 179 174 173 173 164 165 169 171 172 170 179 184 183 178 177 174 171 176 177 176 175 173 177 181 181 185
166 250 238 229 241 252 260 252 228 223 228 244 243 242 237 249 250 255 240 230 240 252 282 260 259 274 273 272 275 276 280 279 275 277 277 276 273 267 262 258 265 265 248 253 254 252 255 250 222 217 210 212 220 219 179 177 167 173 169 172 171 168 173 169 168 168 172 174 173 175 176 178 182 180 179 179 175 175 182 179 178 179 174 179 182 183 184
209 244 240 232 230 235 246 244 244 243 238 239 241 243 259 269 283 268 230 186 222 270 277 268 269 274 277 279 279 279 279 278 278 278 277 276 279 271 252 262 259 259 256 249 252 254 254 252 230 220 215 218 215 199 179 165 166 166 174 176 175 177 174 172 173 177 180 177 174 177 182 177 180 184 188 186 185 187 186 183 176 180 177 184 188 183 177
244 271 272 253 263 294 280 270 241 235 252 261 268 254 254 271 284 290 272 168 212 220 250 272 276 279 280 278 279 282 281 280 280 277 277 278 273 272 276 260 242 247 258 258 252 250 253 252 238 223 222 219 201 189 180 172 166 169 176 176 171 169 169 170 177 180 181 176 182 180 180 185 194 195 188 189 191 188 194 178 179 171 171 183 188 185 168
251 229 243 229 237 262 261 257 257 242 224 230 257 278 280 267 266 266 275 275 218 222 247 261 273 274 277 278 281 282 280 278 278 280 281 280 280 276 265 269 266 261 256 252 257 251 251 250 241 226 223 215 198 189 172 171 168 171 171 168 170 173 174 177 176 176 181 181 184 181 180 181 175 179 189 185 188 178 180 178 168 156 166 178 178 168 174
245 245 250 218 200 247 256 265 277 13 142 191 234 258 260 266 258 255 263 277 285 264 248 241 250 262 269 276 279 281 280 276 275 276 280 283 285 281 278 282 276 264 261 255 251 253 251 247 243 232 225 210 192 182 176 175 177 176 165 168 175 175 175 185 183 182 179 181 184 184 180 174 174 170 158 153 139 159 178 173 166 148 145 114 156 176 170
256 259 255 236 154 243 275 282 289 285 219 214 247 250 261 270 282 285 268 256 263 274 268 265 248 253 267 273 278 278 279 277 277 279 279 276 270 274 277 258 265 271 270 261 251 250 253 240 234 223 218 204 192 187 179 178 179 175 175 171 178 184 186 183 176 179 181 181 180 179 177 174 174 172 170 161 129 68 93 148 154 148 142 141 153 159 163
246 254 265 262 238 263 275 284 284 280 268 235 251 269 278 285 284 275 266 265 245 246 262 267 267 259 265 274 277 276 277 280 279 278 280 284 278 267 270 268 260 256 259 260 259 255 250 238 229 221 215 208 189 183 182 180 180 180 183 184 181 179 179 176 176 179 177 180 183 184 180 177 177 176 175 175 167 150 72 87 121 136 147 153 158 157 155
251 264 267 272 292 273 274 286 282 273 269 266 275 284 278 270 269 277 274 265 265 252 250 260 273 279 278 283 284 281 278 278 280 283 285 281 280 273 265 260 260 259 258 262 257 250 241 232 226 220 221 209 191 190 183 182 184 186 185 188 182 176 176 177 175 180 184 184 184 186 185 183 182 180 182 177 172 159 150 137 95 72 117 164 165 159 158
243 254 270 279 269 261 254 250 261 272 282 289 276 267 269 273 276 275 275 270 259 251 250 261 268 275 277 273 275 274 272 277 284 284 275 272 273 270 265 269 268 262 255 254 253 243 232 222 217 219 227 213 188 185 185 183 185 188 186 183 180 182 177 174 179 182 184 183 185 183 181 183 182 183 180 176 164 165 169 167 168 169 165 161 171 163 159
235 236 227 237 251 254 258 259 261 272 277 273 270 266 269 275 275 275 275 276 276 268 262 256 261 264 267 267 268 275 276 272 272 274 276 275 270 269 270 265 268 266 258 249 249 239 217 214 214 218 225 193 176 181 185 186 189 189 186 183 179 177 179 180 179 180 181 183 183 184 184 186 183 177 166 162 167 168 160 150 150 146 140 153 138 143 155
239 238 231 233 249 263 270 273 269 263 266 270 272 274 277 278 276 274 272 272 274 279 274 264 251 251 258 265 266 269 272 272 273 273 271 272 276 270 262 269 273 268 259 256 251 229 217 213 214 218 222 180 175 178 182 186 192 190 187 185 181 180 179 183 181 175 175 176 182 182 179 172 167 163 160 158 150 147 150 155 151 148 151 143 132 111 75
239 243 245 245 248 257 266 269 266 266 266 269 274 269 260 261 274 274 273 273 275 275 276 275 270 268 265 266 265 263 266 269 269 270 272 272 272 264 255 256 284 286 278 270 245 226 218 220 217 223 216 168 177 177 180 184 189 190 190 187 187 183 182 178 175 172 170 176 173 161 156 154 157 155 153 156 155 154 155 155 156 156 162 170 171 163 156
246 242 241 241 243 246 249 257 263 265 268 269 268 270 269 259 260 270 274 275 274 272 272 272 273 273 272 269 268 264 263 266 268 268 267 266 266 255 227 190 212 249 248 253 267 248 232 232 224 228 187 167 176 180 183 185 181 175 174 177 179 171 166 168 169 168 167 158 154 161 160 158 159 158 161 155 151 152 155 151 157 163 165 166 167 161 158
268 257 246 242 238 239 244 250 255 259 260 263 270 270 265 261 261 263 268 271 271 274 277 279 277 274 271 271 272 272 270 268 267 264 258 255 255 250 222 212 225 240 258 281 270 219 230 235 238 222 143 169 173 185 188 188 178 174 179 169 162 157 158 156 153 154 152 156 156 161 165 162 164 161 153 158 163 161 156 159 165 167 167 166 165 167 160
257 264 259 247 246 247 248 247 247 253 257 260 261 265 273 277 273 270 269 274 282 285 284 279 277 277 279 280 278 272 266 262 263 262 254 250 248 245 230 224 227 236 254 271 273 241 219 228 235 157 165 168 173 184 198 198 187 175 165 160 157 151 153 160 154 145 146 154 168 172 167 166 159 162 165 156 149 146 150 154 152 155 160 158 155 158 158
241 244 258 274 263 249 248 253 254 262 272 281 291 298 298 296 295 295 291 293 294 289 282 286 293 295 293 284 272 264 260 260 262 256 246 240 240 241 235 227 227 229 248 298 303 257 241 240 185 174 185 175 177 180 190 194 191 176 159 155 153 153 157 159 155 159 161 168 167 158 158 156 160 164 154 153 148 149 151 151 151 150 145 142 144 150 158
302 297 303 282 259 256 263 264 272 272 277 282 283 283 285 291 289 281 283 284 278 280 288 294 294 295 291 281 269 260 249 240 245 249 254 244 238 229 212 201 214 245 261 274 349 342 353 353 122 159 174 196 186 184 183 189 186 172 160 154 153 155 156 155 162 168 171 167 158 158 160 161 161 148 143 143 147 149 146 147 147 146 141 137 140 142 137
304 297 293 281 260 251 257 259 264 266 266 266 270 278 281 278 280 277 274 272 276 284 288 287 288 286 280 269 262 254 250 249 252 258 261 257 238 194 183 198 207 228 245 258 204 55 347 7 100 159 165 194 215 203 188 177 176 169 158 149 147 147 150 154 153 146 149 154 161 162 161 147 138 142 145 143 142 144 145 145 146 142 137 135 137 129 120
296 288 285 280 275 263 261 261 260 264 261 264 270 274 275 276 273 274 275 276 277 275 278 284 286 280 275 271 262 259 250 246 247 251 259 260 167 195 214 217 205 218 211 254 222 131 119 135 151 169 163 184 200 222 209 171 165 162 151 147 143 149 151 150 151 152 152 154 152 145 140 139 142 142 145 145 146 145 143 142 137 132 129 131 129 127 124
295 287 281 277 277 272 266 267 269 265 271 274 268 267 268 275 276 274 275 274 275 276 274 270 268 274 275 277 275 268 268 272 277 271 258 198 187 178 219 217 236 215 222 229 118 125 130 141 152 167 167 179 182 185 212 192 158 158 158 152 147 146 148 150 148 147 148 148 148 149 151 149 145 144 145 142 142 143 141 137 137 134 133 129 126 123 123
293 287 280 279 281 278 281 277 269 264 261 265 275 275 274 276 278 281 277 275 276 278 276 275 277 276 272 272 264 261 265 279 291 273 247 220 207 203 223 278 353 336 319 17 107 90 130 145 167 150 153 149 144 130 158 172 163 153 154 150 146 145 148 151 150 143 139 139 143 149 145 143 140 141 141 141 137 135 135 135 134 132 130 132 129 129 128
293 287 286 289 283 282 282 279 279 275 272 270 282 285 295 293 286 281 279 282 282 281 277 282 279 274 275 271 270 268 282 347 325 317 304 255 120 92 68 48 21 360 13 24 46 61 77 115 111 116 121 136 147 153 163 162 152 136 142 142 134 128 133 136 137 137 138 137 132 129 128 131 131 133 132 133 134 134 134 133 130 129 127 123 123 124 122
292 293 290 287 285 283 277 283 282 283 287 286 286 285 288 282 288 285 282 285 295 295 286 287 286 281 279 279 281 296 360 16 17 11 347 359 265 218 243 265 23 1 350 1 24 60 49 51 65 114 90 142 168 166 155 158 146 143 142 141 138 138 138 145 147 147 146 141 139 137 133 127 125 125 131 131 131 130 132 129 129 128 132 132 128 124 114
299 299 298 291 288 289 290 288 289 289 283 288 292 293 291 292 289 284 289 291 295 301 302 311 330 317 315 345 26 44 33 28 38 38 37 30 339 319 314 9 27 3 21 30 32 34 33 41 38 80 103 121 135 172 157 147 145 138 139 137 131 129 129 129 132 132 126 129 132 130 130 132 131 128 126 126 127 129 128 127 121 113 97 92 94 107 114
304 304 298 298 289 288 286 288 287 291 300 307 318 315 319 318 312 309 312 320 330 332 336 341 348 2 11 21 42 47 31 28 35 48 56 45 36 21 38 68 35 5 31 38 30 38 30 17 25 32 73 122 134 135 130 136 139 142 139 130 131 126 123 122 122 121 123 118 92 124 133 133 134 134 130 119 107 118 108 99 98 109 110 113 105 104 99
302 306 311 305 306 301 299 294 301 314 323 331 336 336 344 344 343 347 347 346 351 355 358 354 358 7 19 27 41 46 24 10 9 6 60 58 49 40 32 31 34 26 33 37 42 38 34 23 25 57 80 102 112 108 103 99 104 49 92 119 124 112 105 101 107 116 118 125 121 72 115 129 128 115 110 117 115 109 98 88 95 99 106 105 101 100 104
308 312 317 319 323 334 324 323 325 325 329 347 353 9 8 6 1 4 7 1 3 8 4 4 8 23 28 40 55 61 46 27 359 344 360 25 48 15 18 15 33 29 30 39 41 35 28 39 48 55 75 85 94 98 110 111 90 94 81 87 112 119 120 117 118 116 114 112 119 117 115 105 100 97 102 111 125 107 119 119 114 110 113 114 119 120 121
319 328 340 344 354 357 354 340 341 346 349 26 32 33 22 9 6 5 10 13 10 8 7 359 1 2 11 57 80 73 67 52 39 33 32 14 53 56 35 36 47 46 50 49 40 36 39 46 52 57 61 72 73 80 91 94 90 95 91 92 79 93 92 67 79 74 85 80 84 72 75 84 101 90 99 86 90 100 106 110 101 97 93 95 96 108 111
334 339 351 354 356 358 360 2 360 20 31 32 37 28 20 21 23 26 24 21 21 13 9 7 9 9 10 1 13 59 68 71 59 33 31 42 58 58 62 60 63 62 59 48 40 37 41 43 52 58 61 62 69 79 81 89 91 97 92 91 86 67 61 70 71 75 82 84 85 95 95 86 74 87 89 103 105 105 102 110 105 107 103 103 104 114 112
357 351 353 359 358 2 5 11 26 30 22 21 8 14 12 18 30 42 40 39 42 41 29 22 28 14 9 19 22 23 8 12 88 52 18 19 44 55 55 52 67 70 69 64 57 54 57 60 62 64 64 65 66 73 70 78 83 86 85 78 65 68 70 70 71 73 81 75 79 88 85 86 78 80 74 85 93 88 89 94 105 105 108 107 111 113 110
3 4 351 353 2 11 14 13 16 18 8 352 9 6 0 2 21 34 32 32 32 32 26 18 14 23 32 27 27 27 32 26 51 90 37 357 26 37 35 51 52 54 51 48 50 49 48 56 62 66 71 72 73 70 52 45 42 44 56 61 62 54 52 64 64 71 73 76 74 72 79 83 93 95 100 90 88 90 97 97 101 105 108 109 105 102 102
336 352 9 11 10 13 5 6 13 360 349 352 354 4 6 14 40 17 7 20 39 44 38 32 29 25 24 25 24 19 23 40 42 47 46 36 36 39 36 39 45 42 42 42 39 40 33 37 45 40 35 47 57 64 61 56 48 49 53 53 56 60 56 58 63 63 65 71 73 79 79 85 90 98 96 91 94 99 98 96 99 101 101 97 104 104 100
343 344 350 11 31 26 23 23 2 358 1 4 352 351 13 38 45 29 17 11 8 31 46 45 38 28 21 26 25 22 29 30 42 51 47 39 39 46 47 47 45 47 46 46 39 31 19 13 23 36 44 53 55 51 56 58 62 57 57 66 71 77 65 62 63 78 73 66 87 88 95 96 94 99 98 107 105 108 111 112 112 118 116 113 109 113 111
359 349 343 343 356 28 39 26 14 15 14 2 359 2 354 8 22 19 17 17 10 23 12 38 47 21 17 19 9 13 41 43 45 57 53 50 38 33 36 49 54 46 35 36 32 28 21 29 32 40 42 39 43 52 58 59 62 63 59 60 62 59 66 71 75 80 79 73 85 89 79 81 86 92 98 97 98 109 110 113 113 106 106 103 108 105 108